Wind_Speed
15 16 16 15 16 18 19 20 22 24 24 22 21 19 15 13 9 4 3 3 5 6 5 5 5 6 6 5 5 5 5 3 3 3 4 4 4 4 5 5 4 3 3 6 10 10 11 13 13
17 15 14 13 15 15 20 22 25 26 25 25 24 23 20 16 10 4 3 3 5 7 6 3 4 4 3 4 6 5 6 7 6 7 7 8 6 6 6 5 4 2 5 8 14 10 11 13 12
15 11 12 13 13 18 22 24 25 28 28 28 25 26 26 24 16 7 5 4 7 9 6 2 1 1 1 4 5 5 6 7 6 6 7 5 3 4 5 4 4 1 4 8 9 9 8 10 11
15 11 10 12 14 18 21 22 24 27 27 28 26 27 28 29 24 15 8 8 10 10 7 4 2 2 1 3 3 4 5 5 6 6 5 4 4 4 2 3 4 2 4 4 5 4 13 8 7
14 9 7 10 14 15 17 20 22 25 26 27 28 28 29 27 24 19 15 10 9 9 6 3 3 5 1 3 4 3 5 4 2 4 5 6 6 7 7 6 5 4 3 4 4 4 3 4 9
15 10 7 12 16 18 18 19 22 25 26 26 27 29 29 27 24 21 18 14 10 7 5 4 3 4 4 2 2 2 3 3 2 2 2 3 4 5 6 9 10 9 7 4 4 4 4 2 6
13 13 8 10 17 19 20 22 23 26 27 26 26 27 28 27 25 21 20 17 14 11 7 6 4 3 4 4 3 4 3 2 2 2 2 2 2 3 3 4 6 6 7 6 7 6 2 3 4
11 14 11 11 16 18 19 21 24 26 27 25 26 27 27 27 26 24 23 20 16 12 9 6 3 3 2 2 3 3 3 4 4 3 3 3 2 2 3 4 4 4 4 6 8 9 4 4 5
5 7 8 10 14 15 19 22 24 26 26 25 26 24 24 25 25 24 24 22 18 14 11 7 5 3 3 3 2 3 4 6 5 5 5 5 5 4 3 4 5 5 4 6 8 8 8 6 3
5 6 8 11 13 14 18 21 23 24 23 25 24 23 23 22 22 24 23 23 19 15 13 8 4 2 2 2 3 3 4 6 7 7 7 6 7 8 7 8 7 6 6 6 7 9 9 11 9
5 5 7 10 14 15 19 20 22 22 23 23 22 23 23 23 23 24 23 21 21 19 16 17 13 9 5 5 5 6 6 7 7 7 8 8 9 9 9 9 11 10 8 8 8 7 10 12 12
5 4 6 9 13 12 15 17 20 20 20 20 20 20 23 26 26 25 24 24 23 20 20 23 24 20 14 8 10 9 9 12 11 10 10 9 9 11 11 12 12 15 11 9 11 10 12 13 14
5 2 7 8 10 11 12 16 17 17 17 17 19 21 23 24 26 27 26 26 26 23 24 22 26 24 6 13 19 7 10 15 14 14 10 7 7 8 10 9 11 12 8 10 12 13 14 14 14
1 3 7 9 8 9 10 13 15 12 11 15 14 21 22 22 26 28 28 28 27 25 23 21 20 23 12 26 11 10 12 15 14 10 8 8 8 10 11 9 9 8 7 10 11 14 15 15 16
2 7 9 8 9 8 9 10 11 11 7 12 12 16 19 20 24 28 29 26 26 24 24 22 22 23 22 26 26 17 11 12 14 11 9 11 12 12 11 9 8 7 8 11 13 12 13 15 15
6 9 12 11 8 4 3 5 10 9 6 9 11 12 18 22 23 26 29 30 27 23 22 19 20 24 28 27 28 16 6 4 18 14 21 14 13 13 11 10 10 10 12 12 16 14 16 20 18
16 11 11 12 9 5 1 3 2 5 2 2 9 13 17 21 23 23 27 31 29 25 25 25 21 28 29 24 27 12 9 13 18 18 15 13 12 12 11 13 12 11 12 14 14 14 18 22 19
18 14 11 11 8 8 7 7 8 4 8 7 10 15 20 23 24 23 28 33 28 24 26 26 25 28 28 22 24 11 15 20 19 22 17 12 11 10 9 10 10 11 13 14 14 15 14 12 20
17 14 14 12 8 9 9 9 6 5 10 9 11 15 20 22 26 25 26 29 25 23 23 27 25 28 28 25 25 10 11 12 21 20 16 14 11 8 8 9 10 13 13 14 15 15 14 14 16
15 16 16 15 12 9 12 10 8 8 10 11 12 16 21 23 23 20 23 26 24 22 21 24 24 25 28 26 23 6 5 8 19 16 12 13 9 7 8 10 12 15 17 15 15 16 15 15 15
16 17 17 18 15 15 13 12 11 9 12 17 15 15 20 22 18 16 22 25 22 21 19 22 22 25 28 25 21 13 11 12 12 11 9 4 1 7 11 11 13 15 17 15 16 17 16 16 17
17 17 20 22 20 21 18 14 13 15 18 21 17 16 12 12 12 16 22 23 22 20 20 21 22 24 26 25 20 14 15 8 3 5 8 6 7 9 11 11 13 13 13 15 16 15 15 16 18
21 21 22 26 23 21 23 21 18 16 19 19 12 11 16 14 15 17 21 23 26 22 24 18 20 22 22 25 20 12 11 8 6 7 7 5 5 8 8 8 9 9 8 9 12 15 17 18 19
22 23 25 28 29 25 19 18 20 20 18 17 15 13 17 18 15 18 19 24 25 22 29 16 20 21 23 24 21 16 7 5 7 8 8 8 7 6 6 7 9 9 9 11 12 16 17 17 19
20 20 21 23 23 23 20 17 17 16 15 14 12 16 17 17 18 18 17 20 21 19 14 15 18 21 25 27 25 25 19 8 6 6 7 9 9 8 7 7 7 6 8 10 11 14 12 10 10
16 17 18 20 18 17 19 17 15 17 15 12 13 15 18 20 18 19 14 19 21 19 18 18 20 21 26 30 32 33 19 17 11 8 8 9 10 8 8 7 6 7 9 10 10 10 8 8 8
20 19 20 21 22 19 18 16 17 16 12 12 13 14 16 17 19 19 19 19 21 23 25 19 22 24 27 32 36 34 20 17 16 8 9 8 10 8 8 6 5 5 5 6 9 9 8 8 8
22 21 20 19 17 17 15 16 15 12 9 11 12 16 16 16 15 17 18 19 23 25 25 17 22 24 30 36 38 44 29 21 18 10 11 11 11 8 8 6 5 1 4 8 12 13 12 11 7
24 23 22 19 19 19 14 14 15 12 8 9 13 15 14 15 17 16 17 22 23 27 22 17 21 25 32 44 22 5 14 19 14 10 10 13 11 9 8 5 5 4 6 5 6 7 9 10 10
23 23 19 22 19 19 15 14 12 8 6 9 10 15 13 13 13 18 20 24 26 26 20 18 22 25 34 25 9 9 11 11 10 10 12 14 12 9 7 7 6 6 7 5 2 2 5 7 8
Wind_Direction
77 76 63 67 60 54 54 55 58 55 47 40 35 27 25 13 7 2 101 107 113 97 98 161 191 202 208 196 173 147 138 154 142 144 128 117 112 163 136 105 111 125 168 149 152 135 123 108 102
59 59 69 69 58 54 55 57 55 51 47 42 38 33 31 25 14 22 71 105 96 85 87 140 204 198 192 181 159 146 137 138 135 129 129 123 98 106 131 137 156 169 210 210 164 141 140 124 118
54 51 42 58 57 57 59 55 53 49 45 41 38 39 40 41 40 52 72 73 75 75 77 74 6 16 158 184 162 143 145 148 150 149 145 146 120 111 118 150 155 223 286 298 142 162 152 136 133
58 54 40 60 70 68 61 53 51 50 45 40 39 40 41 45 47 59 63 63 66 69 63 48 35 46 222 188 137 125 118 138 162 177 187 191 205 215 187 170 184 228 279 300 343 356 163 141 148
61 59 36 64 66 63 59 53 54 54 49 42 40 41 42 44 42 52 57 48 58 71 71 60 30 49 303 188 130 115 118 121 138 174 195 208 221 235 236 244 244 232 265 320 325 315 276 121 174
76 77 50 68 67 68 69 57 52 57 51 44 41 44 44 43 40 35 41 43 45 60 59 50 35 43 332 259 148 139 137 154 177 224 235 227 229 240 238 240 250 254 247 235 255 297 293 143 177
90 81 61 70 70 69 66 60 54 55 50 46 42 42 46 48 45 40 41 39 39 40 29 25 13 25 326 301 218 178 177 209 220 201 216 197 207 210 210 221 230 240 244 217 232 237 232 218 211
100 88 69 73 67 59 63 57 49 50 46 44 43 40 45 47 46 43 45 44 44 35 26 26 19 14 353 311 268 259 232 216 246 261 244 234 244 229 219 201 218 202 224 236 227 225 238 242 264
131 93 91 93 72 63 59 55 51 49 47 43 41 39 43 43 42 43 40 40 37 27 24 14 4 359 355 3 296 234 252 269 246 243 253 247 257 263 264 241 226 223 212 232 238 244 234 226 265
207 166 112 102 95 77 67 59 57 53 49 44 39 40 39 40 36 38 36 30 29 24 16 15 354 344 319 323 299 264 239 242 250 258 256 256 260 262 259 255 244 241 230 221 234 248 245 237 253
225 170 112 107 108 82 75 61 55 51 45 41 37 42 42 40 36 31 30 23 16 16 10 356 341 318 288 243 237 243 239 228 237 240 249 258 257 262 262 266 262 245 231 241 243 254 258 250 249
240 181 127 111 112 91 83 69 53 47 47 43 39 43 42 38 37 31 21 12 11 9 5 7 4 323 306 299 317 291 256 221 210 221 224 233 245 251 252 246 253 258 239 248 252 252 259 258 254
278 251 147 119 123 115 82 74 62 42 43 50 45 42 35 32 30 26 17 9 7 4 8 13 0 356 294 306 286 276 276 235 212 203 217 226 249 257 261 252 250 268 282 266 262 261 261 260 256
200 203 169 153 133 136 100 81 66 56 27 37 38 30 25 27 28 20 15 9 5 4 10 11 7 13 350 345 341 296 322 239 214 211 224 242 248 268 264 261 264 271 280 278 270 259 253 255 257
221 205 204 169 143 144 111 78 58 65 38 22 22 13 12 7 21 14 9 6 2 1 4 11 4 7 356 345 342 330 304 298 227 206 228 243 253 253 257 255 262 272 278 276 277 273 257 257 257
233 188 189 172 171 160 135 72 63 70 62 29 14 2 2 356 4 6 8 4 359 358 6 2 5 359 351 347 334 348 336 215 216 198 223 232 240 246 256 257 259 269 274 270 272 266 267 262 257
212 205 190 197 202 207 241 303 10 54 77 4 354 343 351 351 358 351 355 355 356 351 4 5 8 359 351 352 338 347 217 218 204 219 217 229 240 249 249 264 283 285 282 282 281 276 289 254 250
226 201 212 209 200 230 250 271 277 36 24 338 340 342 340 344 345 338 349 346 351 351 358 11 7 358 353 352 345 311 244 239 212 205 213 226 227 245 267 281 288 300 302 299 293 288 286 270 256
230 211 221 240 233 252 265 277 290 354 11 8 359 336 328 333 325 336 344 351 356 352 358 2 3 359 357 349 351 343 198 214 191 193 201 215 226 226 251 272 306 309 298 286 278 280 276 273 266
236 233 233 248 244 266 307 282 292 327 329 333 332 323 316 318 321 346 357 352 354 352 352 357 357 358 2 352 0 47 160 166 173 186 211 218 209 240 259 291 309 308 303 293 291 285 278 276 277
238 241 245 246 258 279 303 308 295 309 298 323 314 317 306 306 322 343 346 343 342 345 344 347 349 357 4 356 356 30 83 143 168 204 211 194 254 262 277 289 291 298 290 280 285 288 277 273 277
244 244 248 248 260 275 290 292 290 301 310 321 332 322 340 336 329 341 344 342 338 336 333 338 341 351 4 3 352 344 17 27 19 324 345 319 298 287 289 292 296 284 283 279 279 285 285 276 277
249 242 243 250 257 272 284 288 286 291 301 315 321 303 314 341 335 339 351 344 333 319 333 323 332 345 359 3 356 348 343 355 358 336 315 320 315 309 313 310 304 300 301 303 300 300 299 291 281
249 248 243 254 265 271 276 270 277 288 293 294 296 300 316 330 325 334 349 343 336 324 322 331 336 341 349 347 354 350 311 315 323 320 330 336 336 339 330 320 309 296 302 301 303 310 305 298 292
248 252 253 255 261 262 263 271 278 282 282 288 292 306 317 323 324 336 344 345 351 355 341 336 345 339 339 341 331 337 321 268 261 284 312 328 346 339 316 309 320 310 311 310 312 329 322 328 315
237 244 259 260 258 254 262 270 277 280 284 290 304 319 317 318 324 327 338 323 340 328 329 336 338 338 334 330 324 318 299 276 244 268 300 326 326 312 291 288 322 323 325 323 341 351 350 346 341
232 244 257 263 262 258 260 265 268 275 296 323 325 316 309 317 327 333 328 319 329 324 322 326 325 331 329 323 316 317 273 284 241 255 276 294 300 294 274 274 290 312 338 25 26 23 4 360 3
233 242 248 256 260 261 257 258 266 276 309 320 317 308 310 313 321 321 316 316 323 319 322 320 318 326 326 318 311 304 293 263 224 241 261 277 281 272 263 273 274 278 121 83 66 59 51 44 13
231 237 241 252 260 259 256 265 277 296 322 327 322 330 328 322 329 323 324 314 319 316 321 318 319 329 327 317 317 240 219 204 214 254 268 268 275 274 266 273 261 184 145 125 85 53 39 31 24
242 235 233 246 255 265 267 269 282 310 332 326 327 349 336 328 325 312 318 319 318 318 314 316 325 337 333 334 124 167 175 193 222 250 259 258 257 261 261 261 239 199 182 197 199 325 337 351 350
Height
5925 5924 5924 5923 5924 5920 5919 5918 5917 5917 5917 5914 5912 5910 5909 5907 5905 5907 5904 5903 5903 5903 5903 5904 5905 5905 5905 5905 5905 5905 5905 5905 5905 5905 5906 5906 5906 5907 5908 5909 5910 5911 5911 5909 5912 5913 5914 5914 5915
5928 5927 5926 5925 5924 5922 5920 5919 5918 5918 5918 5915 5913 5910 5908 5906 5903 5903 5904 5903 5903 5904 5904 5905 5905 5904 5905 5904 5904 5904 5905 5905 5905 5906 5906 5906 5907 5907 5908 5909 5910 5911 5911 5910 5910 5914 5914 5914 5915
5931 5930 5930 5927 5926 5923 5921 5920 5920 5919 5917 5915 5914 5911 5908 5906 5904 5904 5904 5904 5904 5904 5904 5905 5905 5905 5904 5905 5905 5905 5905 5905 5906 5907 5907 5908 5908 5908 5909 5909 5910 5910 5910 5908 5910 5914 5915 5916 5916
5933 5933 5932 5930 5928 5926 5925 5924 5922 5920 5919 5916 5915 5913 5911 5907 5905 5904 5905 5905 5905 5904 5905 5905 5905 5904 5905 5905 5905 5905 5905 5905 5905 5906 5907 5907 5908 5908 5909 5910 5910 5910 5910 5909 5910 5911 5914 5917 5918
5935 5935 5934 5931 5930 5928 5927 5927 5925 5923 5921 5919 5916 5915 5913 5911 5909 5907 5906 5907 5905 5905 5905 5906 5906 5905 5906 5906 5905 5905 5904 5905 5906 5906 5907 5907 5908 5908 5909 5910 5910 5910 5910 5909 5910 5912 5912 5914 5917
5936 5937 5936 5933 5931 5930 5929 5929 5928 5925 5923 5922 5920 5916 5915 5912 5911 5910 5908 5907 5907 5906 5907 5906 5906 5905 5906 5906 5905 5905 5905 5905 5905 5906 5906 5907 5907 5907 5907 5909 5910 5911 5910 5910 5910 5911 5911 5911 5916
5939 5938 5938 5936 5934 5933 5932 5930 5929 5927 5925 5925 5923 5920 5918 5915 5914 5912 5910 5909 5909 5908 5907 5906 5906 5905 5905 5905 5904 5903 5902 5903 5904 5905 5906 5906 5906 5906 5906 5907 5909 5910 5910 5909 5910 5911 5910 5911 5914
5940 5940 5940 5938 5936 5936 5934 5932 5931 5928 5927 5927 5926 5923 5921 5918 5917 5916 5913 5912 5911 5910 5908 5906 5905 5904 5904 5903 5903 5903 5902 5901 5902 5904 5904 5905 5906 5906 5906 5906 5907 5908 5909 5909 5909 5910 5911 5911 5913
5939 5941 5941 5939 5937 5938 5936 5934 5932 5930 5930 5929 5928 5926 5923 5920 5920 5918 5916 5914 5913 5910 5909 5907 5905 5903 5902 5901 5901 5901 5901 5902 5901 5901 5903 5904 5904 5905 5905 5905 5906 5907 5908 5909 5909 5909 5910 5911 5912
5938 5942 5942 5940 5939 5939 5937 5936 5935 5933 5933 5931 5930 5929 5926 5923 5921 5919 5918 5916 5913 5910 5908 5906 5903 5900 5899 5898 5898 5898 5898 5898 5899 5900 5900 5901 5902 5903 5903 5904 5905 5905 5906 5906 5907 5908 5908 5910 5911
5940 5942 5943 5941 5940 5939 5938 5938 5937 5936 5935 5933 5932 5930 5927 5924 5921 5919 5918 5915 5913 5911 5909 5906 5904 5901 5898 5894 5893 5893 5894 5895 5896 5897 5898 5897 5899 5900 5901 5902 5903 5903 5904 5905 5905 5906 5907 5908 5910
5941 5943 5944 5943 5942 5940 5939 5939 5938 5939 5937 5936 5934 5931 5928 5925 5922 5920 5917 5914 5914 5911 5909 5905 5904 5901 5899 5897 5892 5889 5888 5890 5890 5893 5894 5894 5895 5896 5898 5900 5901 5902 5903 5903 5903 5904 5905 5907 5908
5940 5942 5944 5944 5943 5942 5941 5940 5940 5939 5939 5938 5935 5933 5929 5927 5925 5922 5919 5916 5913 5911 5907 5903 5900 5895 5895 5893 5889 5885 5883 5886 5887 5888 5890 5892 5893 5894 5895 5896 5898 5899 5900 5902 5902 5901 5903 5904 5905
5940 5941 5943 5943 5943 5943 5942 5942 5941 5940 5940 5938 5936 5934 5930 5928 5926 5923 5920 5916 5913 5911 5907 5901 5899 5897 5894 5889 5883 5883 5882 5881 5884 5886 5888 5889 5891 5891 5893 5894 5896 5897 5897 5898 5898 5899 5900 5901 5902
5940 5941 5941 5943 5943 5944 5942 5942 5942 5941 5940 5938 5936 5934 5932 5929 5928 5924 5921 5918 5913 5910 5905 5899 5897 5894 5891 5885 5882 5881 5877 5879 5881 5883 5887 5887 5888 5889 5891 5891 5893 5894 5894 5894 5896 5897 5897 5898 5898
5937 5939 5941 5942 5943 5944 5943 5943 5942 5941 5941 5939 5937 5934 5932 5930 5928 5924 5921 5918 5914 5909 5904 5900 5895 5892 5887 5882 5879 5875 5875 5876 5879 5879 5885 5884 5885 5887 5887 5888 5889 5890 5890 5892 5892 5893 5894 5894 5894
5935 5937 5939 5940 5941 5942 5943 5942 5943 5942 5940 5939 5938 5935 5932 5929 5928 5924 5921 5917 5914 5907 5902 5896 5893 5891 5885 5880 5876 5870 5873 5874 5875 5879 5881 5882 5883 5885 5885 5886 5885 5886 5887 5888 5888 5888 5888 5888 5889
5933 5936 5937 5938 5940 5941 5941 5941 5941 5942 5941 5940 5938 5935 5931 5928 5927 5924 5920 5916 5912 5907 5900 5897 5892 5888 5883 5878 5874 5868 5869 5871 5872 5875 5878 5880 5882 5883 5885 5885 5884 5884 5883 5883 5883 5883 5883 5883 5884
5931 5933 5935 5936 5938 5938 5939 5939 5940 5940 5939 5939 5938 5935 5931 5927 5925 5924 5919 5914 5910 5906 5901 5895 5892 5887 5881 5875 5870 5864 5864 5868 5869 5874 5877 5878 5881 5882 5882 5883 5881 5881 5880 5880 5880 5879 5879 5879 5879
5930 5931 5933 5934 5936 5938 5938 5937 5938 5938 5937 5937 5936 5934 5929 5926 5924 5923 5918 5914 5910 5905 5900 5896 5893 5888 5881 5876 5872 5866 5865 5867 5871 5875 5877 5878 5878 5880 5879 5879 5878 5877 5876 5875 5875 5875 5875 5875 5876
5927 5929 5930 5932 5933 5934 5936 5936 5936 5935 5934 5934 5933 5931 5928 5924 5923 5920 5917 5912 5909 5904 5900 5896 5892 5888 5882 5877 5874 5871 5869 5871 5873 5875 5874 5873 5876 5877 5877 5876 5876 5875 5873 5873 5872 5871 5872 5872 5872
5924 5927 5929 5929 5932 5932 5933 5935 5933 5932 5931 5930 5929 5928 5927 5923 5921 5919 5916 5910 5906 5903 5899 5896 5893 5888 5883 5879 5875 5875 5874 5872 5873 5873 5873 5873 5873 5874 5874 5874 5873 5872 5871 5870 5869 5869 5869 5868 5868
5922 5924 5926 5926 5928 5930 5930 5930 5930 5930 5929 5928 5927 5927 5925 5922 5919 5917 5913 5908 5904 5900 5896 5893 5892 5889 5884 5881 5879 5876 5875 5874 5874 5874 5873 5872 5871 5871 5870 5870 5870 5870 5869 5868 5867 5866 5866 5864 5863
5918 5920 5923 5923 5924 5926 5925 5926 5926 5926 5927 5927 5925 5924 5922 5920 5917 5913 5910 5905 5900 5897 5893 5891 5890 5887 5884 5880 5880 5878 5876 5874 5873 5873 5871 5871 5870 5869 5869 5869 5869 5869 5868 5867 5865 5864 5861 5860 5858
5915 5917 5918 5921 5921 5921 5921 5922 5923 5923 5923 5923 5922 5920 5919 5917 5914 5910 5908 5903 5898 5894 5892 5890 5888 5885 5882 5878 5876 5876 5875 5873 5872 5872 5870 5869 5868 5868 5868 5868 5868 5867 5866 5865 5863 5860 5858 5856 5855
5911 5912 5914 5915 5916 5917 5917 5918 5919 5918 5919 5920 5919 5918 5915 5913 5910 5906 5905 5902 5897 5894 5890 5887 5884 5880 5877 5874 5871 5869 5870 5870 5868 5869 5869 5867 5867 5867 5868 5868 5866 5866 5864 5863 5860 5858 5857 5856 5855
5907 5908 5910 5910 5911 5913 5914 5915 5915 5915 5916 5916 5915 5915 5912 5910 5907 5903 5901 5897 5893 5889 5886 5883 5880 5876 5873 5869 5864 5862 5862 5865 5867 5866 5867 5866 5867 5866 5867 5866 5866 5865 5863 5861 5858 5857 5858 5856 5855
5902 5905 5906 5906 5909 5910 5910 5911 5911 5912 5915 5913 5912 5911 5909 5906 5903 5899 5896 5892 5890 5886 5883 5880 5877 5873 5867 5860 5855 5852 5856 5859 5864 5864 5865 5866 5867 5866 5866 5866 5866 5865 5863 5862 5860 5860 5858 5857 5857
5898 5900 5901 5904 5906 5906 5907 5908 5907 5909 5911 5910 5908 5906 5904 5901 5899 5897 5894 5891 5888 5883 5881 5877 5874 5869 5862 5852 5843 5848 5849 5856 5862 5865 5865 5865 5865 5865 5864 5863 5865 5864 5863 5863 5862 5862 5861 5860 5859
5893 5896 5897 5899 5902 5903 5903 5905 5905 5906 5906 5906 5904 5902 5900 5898 5897 5894 5892 5888 5884 5880 5878 5875 5871 5867 5856 5843 5843 5847 5851 5857 5861 5863 5865 5865 5864 5864 5863 5863 5862 5861 5861 5863 5862 5862 5862 5860 5860